• MPC Preparation (Info)

  • MPEC 2015-V33 : 2015 VK1

    The following Minor Planet Electronic Circular may be linked-to from your own Web pages, but must not otherwise be redistributed electronically.

    A form allowing access to any MPEC is at the bottom of this page.


    Read MPEC 2015-V32 Read MPEC 2015-V34


    M.P.E.C. 2015-V33                                Issued 2015 Nov. 4, 19:44 UT
    
         The Minor Planet Electronic Circulars contain information on unusual
             minor planets and routine data on comets.  They are published
        on behalf of Division F of the International Astronomical Union by the
              Minor Planet Center, Smithsonian Astrophysical Observatory,
                              Cambridge, MA 02138, U.S.A.
    
                 Prepared using the Tamkin Foundation Computer Network
    
                                  MPC@CFA.HARVARD.EDU
                URL https://www.minorplanetcenter.net/    ISSN 1523-6714
    
                                       2015 VK1
    
    Observations:
         K15V01K* C2015 11 03.47072 01 24 25.121+26 51 49.45         20.1 rLEV033F51
         K15V01K  C2015 11 03.49236 01 24 06.137+26 52 28.49         19.7 rLEV033F51
         K15V01K  C2015 11 03.50270 01 23 57.251+26 52 45.95         20.3 rLEV033F51
         K15V01K  C2015 11 03.81950 01 20 38.86 +27 01 48.8                qEV033246
         K15V01K  C2015 11 03.82114 01 20 37.56 +27 01 51.9                qEV033246
         K15V01K  C2015 11 03.82157 01 20 37.39 +27 01 53.2                qEV033246
         K15V01K  C2015 11 03.82179 01 20 37.19 +27 01 54.3                qEV033246
         K15V01K  C2015 11 03.82234 01 20 36.83 +27 01 55.7                qEV033246
         K15V01K  C2015 11 03.82396 01 20 35.69 +27 01 58.6                qEV033246
         K15V01K  C2015 11 03.82474 01 20 35.10 +27 02 00.6                qEV033246
         K15V01K  C2015 11 03.82518 01 20 34.73 +27 02 01.7                qEV033246
         K15V01K KC2015 11 04.18124601 17 01.90 +27 12 46.8          20.1 VuEV033H21
         K15V01K KC2015 11 04.18362201 17 00.39 +27 12 50.2          20.2 VuEV033H21
         K15V01K KC2015 11 04.18643001 16 58.62 +27 12 54.4          20.2 VuEV033H21
         K15V01K KC2015 11 04.18902201 16 57.02 +27 12 58.2          20.1 VuEV033H21
    
    Observer details:
    246 Klet Observatory-KLENOT.  Observers M. Tichy, J. Ticha, M. Kocer.
        Measurer M. Tichy.  1.06-m KLENOT Telescope + CCD.
    F51 Pan-STARRS 1, Haleakala.  Observers B. Gibson, T. Goggia, N. Primak,
        A. Schultz, M. Willman.  Measurers K. Chambers, S. Chastel, L. Denneau,
        H. Flewelling, M. Huber, E. Lilly, E. Magnier, R. Wainscoat, C. Waters,
        R. Weryk.  1.8-m Ritchey-Chretien + CCD.
    H21 Astronomical Research Observatory, Westfield.  Observers T. Linder,
        R. Holmes.  Measurers T. Linder, R. Holmes, L. Buzzi.  0.76-m f/3.0
        astrograph + CCD, 1.3-m f/4.0 astrograph + CCD.
    
    Orbital elements:
    2015 VK1                                                 Earth MOID = 0.0027 AU
    Epoch 2016 Jan. 13.0 TT = JDT 2457400.5                 MPC
    M 143.07924              (2000.0)            P               Q
    n   1.01923113     Peri.  241.95267     +0.16284077     +0.97830590
    a   0.9778846      Node    38.10833     -0.81665634     +0.20648115
    e   0.4271040      Incl.   11.97642     -0.55367437     -0.01682587
    P   0.97           H   26.8           G   0.15           U   8
    Residuals in seconds of arc
    151103 F51  0.2-  0.2+    151103 246  0.4+  0.6-    151103 246  0.5-  0.2+
    151103 F51  0.0   0.1+    151103 246  0.2-  0.0     151104 H21  0.4+  0.3+
    151103 F51  0.2+  0.2-    151103 246  0.3+  0.3+    151104 H21  0.1+  0.2+
    151103 246  0.1+  0.6-    151103 246  0.6+  0.3-    151104 H21  0.2-  0.3+
    151103 246  1.5-  1.0-    151103 246  0.2+  0.1+    151104 H21  0.0   0.3+
    
    Ephemeris:
    2015 VK1                 a,e,i = 0.98, 0.43, 12                  q = 0.5602
    Date    TT    R. A. (2000) Decl.     Delta      r     Elong.  Phase     V
    2015 10 05    12 43 07.3 -26 41 11   0.2351  0.7877    22.3   151.3    31.8
    ...
    2015 10 20    12 31 22.0 -28 42 02   0.09586 0.9093    24.1   153.4    30.6
    ...
    2015 10 28    11 57 47.2 -29 31 02   0.02772 0.9709    34.3   144.8    26.5
    ...
    2015 11 03    01 31 43.0 +26 29 22   0.02386 1.0149   162.0    17.6    19.6
    2015 11 04    01 18 42.9 +27 08 58   0.03221 1.0220   158.7    20.6    20.4
    2015 11 05    01 11 03.1 +27 29 40   0.04062 1.0290   156.4    22.7    21.0
    ...
    2015 11 11    00 55 42.2 +28 02 44   0.09181 1.0699   148.9    28.5    23.0
    ...
    2015 11 19    00 53 37.9 +28 03 54   0.1620  1.1208   142.2    32.7    24.5
    ...
    2015 12 04    01 02 15.7 +28 00 35   0.3007  1.2045   131.0    38.2    26.1
    
    A. U. Tomatic                (C) Copyright 2015 MPC           M.P.E.C. 2015-V33
    

    Read MPEC 2015-V32 Read MPEC 2015-V34


    MPEC number:

    Enter an MPEC number in one of the following forms:

    • 1997-B01 (the full form)
    • J97B01 (the packed version of the full form)
    • B01 (the abbreviated form)